Simultaneous Nadir Overpasses (SNOs) Predictions

Prediction of SNOs between METOP-B and NPP Satellite Orbit:

Table of predicted SNOs for the next 14.0 days since TLE Epoch: 10/25/2015
Index Date (METOP-B) Time (METOP-B) Lat,Lon (METOP-B) SZA (METOP-B ) Date (NPP) Time (NPP) Lat,Lon (NPP) SZA (NPP ) Distance(km) Time Diff (sec)
1 11/04/2015 01:51:50 73.66, 146.08 88.80 11/04/2015 01:50:44 73.66, 142.97 88.86 97.19 66
2 11/04/2015 02:42:34 -73.54, -46.85 91.30 11/04/2015 02:41:26 -73.55, -49.45 91.25 81.80 68
3 11/04/2015 03:33:18 73.33, 120.00 88.51 11/04/2015 03:32:08 73.37, 118.27 88.58 55.49 70
4 11/04/2015 04:24:01 -73.27, -72.81 91.55 11/04/2015 04:22:50 -73.26, -74.17 91.53 43.61 71
5 11/04/2015 05:14:45 73.06, 94.06 88.26 11/04/2015 05:13:32 73.08, 93.54 88.29 17.09 73
6 11/04/2015 06:05:29 -72.95, -98.85 91.84 11/04/2015 06:04:14 -72.97, -98.91 91.82 3.04 75
7 11/04/2015 06:56:09 72.93, 68.46 88.16 11/04/2015 06:54:59 72.94, 68.47 88.17 0.53 70
8 11/04/2015 07:46:51 -72.92,-124.24 91.85 11/04/2015 07:45:43 -72.93,-124.19 91.84 1.54 68
9 11/04/2015 08:37:30 72.96, 43.17 88.21 11/04/2015 08:36:29 72.94, 43.08 88.20 3.61 61
10 11/04/2015 09:28:12 -72.95,-149.52 91.80 11/04/2015 09:27:13 -72.93,-149.58 91.81 2.76 59
11 11/04/2015 10:18:52 72.94, 17.78 88.21 11/04/2015 10:17:59 72.95, 17.69 88.23 3.54 53
12 11/04/2015 11:09:34 -72.93,-174.91 91.80 11/04/2015 11:08:43 -72.94,-174.97 91.78 2.65 51
13 11/04/2015 12:00:14 72.91, -7.61 88.20 11/04/2015 11:59:28 72.91, -7.60 88.20 0.56 46
14 11/04/2015 12:50:56 -72.90, 159.70 91.80 11/04/2015 12:50:12 -72.90, 159.74 91.80 1.40 44
15 11/04/2015 13:41:36 72.89, -32.99 88.20 11/04/2015 13:40:58 72.92, -32.99 88.23 3.06 38
16 11/04/2015 14:32:18 -72.88, 134.31 91.80 11/04/2015 14:31:42 -72.91, 134.35 91.77 3.23 36
17 11/04/2015 15:22:57 72.92, -58.28 88.25 11/04/2015 15:22:28 72.93, -58.38 88.26 3.47 29
18 11/04/2015 16:13:39 -72.91, 109.03 91.75 11/04/2015 16:13:12 -72.91, 108.96 91.74 2.47 27
19 11/04/2015 17:04:19 72.89, -83.67 88.25 11/04/2015 17:03:57 72.88, -83.66 88.24 1.17 22
20 11/04/2015 17:55:01 -72.88, 83.64 91.75 11/04/2015 17:54:41 -72.87, 83.67 91.76 1.67 20
21 11/04/2015 18:45:41 72.87,-109.06 88.25 11/04/2015 18:45:27 72.89,-109.06 88.27 2.36 14
22 11/04/2015 19:36:23 -72.86, 58.25 91.75 11/04/2015 19:36:11 -72.88, 58.28 91.73 2.44 12
23 11/04/2015 20:27:03 72.85,-134.45 88.25 11/04/2015 20:26:56 72.85,-134.34 88.25 3.42 7
24 11/04/2015 21:17:44 -72.89, 32.97 91.71 11/04/2015 21:17:41 -72.89, 32.89 91.70 2.54 3
25 11/04/2015 22:08:24 72.87,-159.73 88.30 11/04/2015 22:08:26 72.86,-159.73 88.28 1.86 2
26 11/04/2015 22:59:06 -72.86, 7.58 91.71 11/04/2015 22:59:10 -72.85, 7.60 91.73 2.19 4
27 11/04/2015 23:49:46 72.85, 174.88 88.29 11/04/2015 23:49:56 72.86, 174.88 88.31 1.69 10
28 11/05/2015 00:40:28 -72.84, -17.81 91.71 11/05/2015 00:40:40 -72.85, -17.79 91.70 1.66 12
29 11/05/2015 01:31:08 72.83, 149.49 88.29 11/05/2015 01:31:25 72.82, 149.59 88.29 3.21 17
30 11/05/2015 02:21:49 -72.87, -43.09 91.66 11/05/2015 02:22:10 -72.86, -43.18 91.67 2.85 21
31 11/05/2015 03:12:29 72.85, 124.21 88.34 11/05/2015 03:12:55 72.83, 124.20 88.32 2.56 26
32 11/05/2015 04:03:11 -72.84, -68.48 91.66 11/05/2015 04:03:39 -72.82, -68.46 91.69 2.84 28
33 11/05/2015 04:53:51 72.83, 98.82 88.34 11/05/2015 04:54:25 72.84, 98.81 88.35 1.10 34
34 11/05/2015 05:44:33 -72.82, -93.87 91.66 11/05/2015 05:45:09 -72.83, -93.85 91.66 0.90 36
35 11/05/2015 06:35:13 72.81, 73.43 88.34 11/05/2015 06:35:54 72.80, 73.52 88.32 3.14 41
36 11/05/2015 07:25:54 -72.85,-119.15 91.62 11/05/2015 07:26:39 -72.84,-119.25 91.63 3.32 45
37 11/05/2015 08:16:33 72.83, 48.15 88.39 11/05/2015 08:17:23 72.80, 48.13 88.35 3.26 50
38 11/05/2015 09:07:15 -72.82,-144.54 91.62 11/05/2015 09:08:07 -72.79,-144.53 91.65 3.53 52
39 11/05/2015 09:57:55 72.81, 22.76 88.38 11/05/2015 09:58:53 72.81, 22.74 88.38 0.77 58
40 11/05/2015 10:48:37 -72.80,-169.93 91.62 11/05/2015 10:49:37 -72.80,-169.92 91.62 0.28 60
41 11/05/2015 11:39:17 72.79, -2.63 88.38 11/05/2015 11:40:22 72.77, -2.55 88.36 3.22 65
42 11/05/2015 12:29:59 -72.78, 164.68 91.62 11/05/2015 12:31:07 -72.81, 164.69 91.59 3.50 68
43 11/05/2015 13:20:39 72.76, -28.02 88.38 11/05/2015 13:21:52 72.78, -27.94 88.39 3.17 73
44 11/05/2015 14:11:22 -72.70, 139.19 91.67 11/05/2015 14:12:36 -72.77, 139.40 91.62 9.92 74
45 11/05/2015 15:02:06 72.48, -53.92 88.13 11/05/2015 15:03:17 72.53, -52.81 88.16 37.62 71
46 11/05/2015 15:52:49 -72.43, 113.29 91.92 11/05/2015 15:54:00 -72.47, 114.63 91.90 45.20 71
47 11/05/2015 16:43:34 72.15, -79.91 87.84 11/05/2015 16:44:41 72.23, -77.60 87.87 79.32 67
48 11/05/2015 17:34:17 -72.09, 87.31 92.21 11/05/2015 17:35:23 -72.12, 89.93 92.24 89.83 66
